KROZINGEN Weather Reports


time (UTC)temp
F
wind
direction
speed
knots
gust
knots
rain 1hr
in
rain 24hr
in
rain mn
in
humidity
%
barometer
mb
20260506000211 53 203 1.7 0.0 0.00 0.00 0.00 86 1008.9
20260505233209 54 229 0.9 0.0 0.00 0.00 0.00 85 1009.0
20260505230209 54 128 0.9 0.0 0.00 0.00 0.00 85 1009.1
20260505223210 54 131 1.7 0.0 0.00 0.00 0.00 86 1009.3
20260505220209 54 235 1.7 0.0 0.00 0.00 0.13 86 1009.5
20260505213211 54 228 0.9 0.0 0.00 0.00 0.13 86 1009.3
20260505210215 55 140 1.7 0.0 0.00 0.00 0.13 86 1009.5
20260505203209 56 143 4.3 0.0 0.00 0.00 0.13 86 1009.5
20260505200210 56 127 0.9 0.0 0.00 0.00 0.13 88 1009.2
20260505193209 57 139 1.7 0.0 0.00 0.00 0.13 86 1009.0
20260505190215 58 207 2.6 0.0 0.00 0.00 0.13 83 1008.8
20260505183212 59 143 2.6 0.0 0.00 0.00 0.13 85 1008.3
20260505180211 61 191 7.8 0.0 0.00 0.00 0.13 81 1008.4
20260505173210 64 127 3.5 0.0 0.00 0.00 0.13 73 1008.2
20260505170210 66 226 7.0 0.0 0.00 0.00 0.13 69 1008.1
20260505163211 64 123 7.0 0.0 0.00 0.00 0.13 74 1008.2
20260505153210 60 271 4.3 0.0 0.00 0.00 0.13 90 1008.2
20260505150215 58 217 3.5 0.0 0.00 0.00 0.13 90 1008.2
20260505140210 66 216 2.6 0.0 0.00 0.00 0.00 69 1007.7
20260505130210 64 30 4.3 0.0 0.00 0.00 0.00 73 1008.3
20260505123210 63 13 1.7 0.0 0.00 0.00 0.00 76 1008.5
20260505120210 61 252 3.5 0.0 0.00 0.00 0.00 80 1008.9
20260505113210 61 266 2.6 0.0 0.00 0.00 0.00 80 1009.2
20260505110211 61 229 3.5 0.0 0.00 0.00 0.00 80 1009.2
20260505100212 60 331 0.9 0.0 0.00 0.00 0.00 84 1009.3
20260505093212 60 349 0.9 0.0 0.00 0.00 0.00 83 1009.1
20260505090211 59 34 1.7 0.0 0.00 0.00 0.00 87 1009.5
20260505083211 60 51 0.9 0.0 0.00 0.00 0.00 86 1009.8
20260505080210 59 30 0.9 0.0 0.00 0.00 0.00 85 1009.9
20260505073210 58 250 0.9 0.0 0.00 0.00 0.00 89 1010.1
20260505070211 56 238 1.7 0.0 0.00 0.00 0.00 91 1010.2
20260505063211 55 273 1.7 0.0 0.00 0.00 0.00 92 1010.3
20260505060212 54 198 0.0 0.0 0.00 0.00 0.00 93 1010.5
20260505053211 54 229 0.9 0.0 0.00 0.00 0.00 94 1010.5
20260505050211 53 227 0.9 0.0 0.00 0.00 0.00 94 1010.4
20260505040210 53 124 1.7 0.0 0.00 0.00 0.00 92 1010.4
20260505033211 53 300 0.9 0.0 0.00 0.00 0.00 93 1010.3
20260505030213 53 185 4.3 0.0 0.00 0.00 0.00 92 1010.4
20260505023211 53 117 0.9 0.0 0.00 0.00 0.00 93 1010.8
20260505020211 52 117 0.0 0.0 0.00 0.00 0.00 93 1011.1
20260505013211 53 241 0.0 0.0 0.00 0.00 0.00 93 1011.4
20260505010211 53 241 0.9 0.0 0.00 0.00 0.00 92 1011.6
20260505003208 54 127 1.7 0.0 0.00 0.00 0.00 90 1011.9